OVZON-3

Last updated on Mon Sep 07 2026 00:03:02 GMT+0000 (Coordinated Universal Time)

1 58698U 24003A 26249.46104110 .00000036 00000+0 00000+0 0 9992 2 58698 0.0131 161.1609 0000174 102.1903 307.8832 1.00272719 8261
UTC large
Height (km)
Speed (km/s)
/
Latitude / Longitude
Inclination (degrees)
Orbital Period (minutes)
Azimuth
Elevation
Range (km)
Doppler Factor

Next 0 passes for location: London (51.5072 / 0.1276)

No passes found over London.
OVZON-3